Regional Weather Roundup
Issued by NWS Newport/Morehead, NC

Current Version | Previous Version | Text Only | Print | Product List | Glossary Off
Versions: 1 2 3 4 5 6 7 8 9 10 11 12 13 14 15 16 17 18 19 20 21 22 23 24 25 26 27 28 29 30 31 32 33 34 35 36 37 38 39 40 41 42 43 44 45 46 47 48 49 50
851 ASUS42 KMHX 140425 RWRMHX WEATHER ROUNDUP FOR EASTERN NORTH CAROLINA NATIONAL WEATHER SERVICE NEWPORT/MOREHEAD CITY NC 1100 PM EST SAT FEB 13 2016 NOTE: "FAIR" INDICATES FEW OR NO CLOUDS BELOW 12,000 FEET WITH NO SIGNIFICANT WEATHER AND/OR OBSTRUCTIONS TO VISIBILITY NCZ015>017-031-032-045>047-102-103-140500- NORTH COAST CITY SKY/WX TMP DP RH WIND PRES REMARKS EDENTON CLEAR 26 0 33 N12 30.44R WCI 15 ELIZABETH CITY CLEAR 23 4 44 N15 30.43R WCI 10 KITTY HAWK CLEAR 25 2 38 N10G23 30.39R WCI 14 MANTEO CLEAR 25 7 45 N14 30.42R WCI 13 $$ NCZ045>047-081-094-103-104-140500- CENTRAL COAST CITY SKY/WX TMP DP RH WIND PRES REMARKS FRISCO CLEAR 30 4 33 N10G21 30.39R SWANQUARTER N/A 25 N/A N/A NW9 30.39S $$ NCZ095-097-098-100-101-140500- SOUTHERN COAST CITY SKY/WX TMP DP RH WIND PRES REMARKS BEAUFORT CLEAR 28 4 35 N12 30.42R WCI 18 CEDAR ISLAND N/A 30 N/A N/A NW33 30.44S WCI 14 JACKSONVILLE CLEAR 28 4 35 N12 30.42S WCI 18 PINEY ISLAND CLEAR N/A N/A N/A N20G28 30.42R WILMINGTON CLEAR 28 8 43 N7 30.42R $$ NCZ011>013-027>030-043-044-078>080-089-090>093-098-140500- COASTAL PLAIN CITY SKY/WX TMP DP RH WIND PRES REMARKS AHOSKIE CLEAR 23 -1 34 N5 30.45S CLINTON CLEAR 28 6 39 N6 30.43S ELIZABETHTOWN CLEAR 28 6 40 N3 30.41S GOLDSBORO CLEAR 27 -2 28 N7 30.42S GREENVILLE CLEAR 27 3 36 NW5 30.44S HAVELOCK CLEAR 28 4 35 N17G24 30.43R WCI 16 KENANSVILLE CLEAR 26 4 39 N5 30.43F KINSTON CLEAR 27 1 33 NW9 30.45R NEW BERN CLEAR 27 3 35 N12 30.44R WCI 17 RICHLANDS CLEAR 25 3 39 N6 30.42S ROCKY MOUNT CLEAR 24 -1 33 NW9 30.45R WASHINGTON CLEAR 24 2 39 NW6 30.43S WHITEVILLE CLEAR 30 3 32 N5 30.41S $$ AMZ130-135-150-152-154-156-158-170-250-252-270-ANZ085-086-088-633-658-670-140500- MARINE OBSERVATIONS STATION/POSITION TIME TEMP WIND PRES WAVE SWELL AIR SEA DIR/SP/G HT/PER HT/PER (UTC) (F) (DEG/KT/KT) (MB) (FT/S) (FT/S) CHESAPEAKE LIGHT 0400 23 330/ 28/ 31 1030.1 64 E VA BEACH 0350 27 50 330/ 27/ 35 1027.6 9/ 8 2/12 DUCK 0400 26 330/ 18/ 23 1028.9 2 E DUCK 0311 42 N/A 5/ 7 OREGON INLET 0400 26 38 330/ 12/ 16 1029.4 13E OREGON INLT 0400 45 N/A 7/ 7 HATTERAS CG 0400 30 41 320/ 22/ 26 1028.8 DIAMOND BUOY 0350 35 72 340/ 23/ 33 1028.2 6/ 5 CAPE LOOKOUT NOT AVBL BEAUFORT LAB 0400 30 43 360/ 15/ 19 1028.9 30 SE NEW RVR IN 0408 36 61 1028.4 30 SE NEW RVR IN 0325 61 N/A 5/ 5 27 SE WRIGHTSVLE 0408 37 59 10/ 17/ 25 1027.6 5 SE WRIGHTSVLE 0308 36 50 20/ 17/ 23 1029.6 225 S CAPE HAT 0350 49 68 350/ 19/ 25 N/A 9/ 8 41 SE CHARLESTON 0350 46 66 10/ 12/ 16 1027.8 4/ 6 2/ 6 $$

USA.gov is the U.S. government's official web portal to all federal, state and local government web resources and services.